372  
SXUS52 KJAX 220213  
OSOJAX  
OTHER SURFACE OBSERVATIONS  
NATIONAL WEATHER SERVICE JACKSONVILLE FL  
1000 PM EDT MON MAY 21 2018  
 
FLZ020>025-030>033-035>038-040-220300-   
..FLORIDA
 
 
 
CITY SKY/WX TMP DP RH WIND PRES REMARKS  
CECIL FIELD PTCLDY 72 72 100 VRB5 30.11R  
HERLONG FIELD NOT AVBL  
FERNANDINA BCH NOT AVBL  
LAKE CITY FAIR 72 68 88 SE10 30.10S  
JUNIPER SPGS NOT AVBL  
BUNNELL NOT AVBL  
KEYSTONE HGTS FAIR 70 70 100 CALM 30.12S  

 
 
GAZ132>136-149>154-162>166-220300-   
..GEORGIA
 
 
 
CITY SKY/WX TMP DP RH WIND PRES REMARKS  
JESUP NOT AVBL  
HOMERVILLE CLOUDY 72 70 94 E6 30.10S  
SWAINSBORO CLOUDY 72 72 100 CALM 30.14R  
CORDELE NOT AVBL  
EASTMAN CLOUDY 74 63 68 SE5 30.12F  

 
 
PLEASE NOTE: THESE OBSERVATIONS ARE NOT QUALITY CONTROLLED AND MAY  
NOT BE AVAILABLE AT ALL TIMES.  

 
 
 
CLICK HERE TO GO TO PREVIOUS BULLETINS.

The Nexlab FL Page
The Nexlab GA Page Main Text Page